Mobridge, SD

11:44 PM CDT on October 20, 2017 (GMT -0500)
Mobridge Municipal

Weather History for KMBG - January, 2004

Change the Weather History Date:

Sunday, January 25, 2004

  Actual Average Record
Temperature  
Mean Temperature 11 °F 16 °F  
Max Temperature 17 °F 27 °F 57 °F (2002)
Min Temperature 5 °F 7 °F -36 °F (1929)
Degree Days  
Heating Degree Days 54 48  
Month to date heating degree days 1224  
Since 1 July heating degree days 4440  
Cooling Degree Days 0 0  
Month to date cooling degree days 0  
Year to date cooling degree days 0  
Moisture  
Dew Point 9 °F    
Average Humidity 83    
Maximum Humidity 92    
Minimum Humidity 71    
Precipitation  
Precipitation 0.02 in 0.01 in 0.40 in (1913)
Month to date precipitation 0.24  
Year to date precipitation 0.24  
Snow  
Snow 0.00 in - - ()
Month to date snowfall  
Since 1 July snowfall  
Snow Depth -    
Sea Level Pressure  
Sea Level Pressure 29.80 in    
Wind  
Wind Speed 15 mph (ENE)    
Max Wind Speed 22 mph    
Max Gust Speed 30 mph    
Visibility 4 miles    
Events Rain , Snow    
T = Trace of Precipitation, MM = Missing Value Source: NWS Daily Summary

Daily Weather History Graph

Daily Weather History Graph

Search for Another Location

Airport or City:

Trip Planner

Search our weather history database for the weather conditions in past years. The results will help you decide how hot, cold, wet, or windy it might be!

Date:

Astronomy

Jan. 25, 2004 Rise Set
Actual Time 8:10 AM CST 5:37 PM CST
Civil Twilight 7:38 AM CST 6:09 PM CST
Nautical Twilight 7:02 AM CST 6:45 PM CST
Astronomical Twilight 6:27 AM CST 7:20 PM CST
Moon 10:34 AM CST (1/25) 10:17 PM CST (1/25)
Length of Visible Light 10h 31m
Length of Day
9h 26m
Waxing Crescent, 18% of the Moon is Illuminated
Jan 25
Waxing Crescent
Jan 29
First Quarter
Feb 6
Full
Feb 13
Last Quarter
Feb 20
New

Hourly Weather History & Observations

Time (CST) Temp. Windchill Dew Point Humidity Pressure Visibility Wind Dir Wind Speed Gust Speed Precip Events Conditions
12:55 AM 17.1 °F -0.3 °F 10.0 °F 74% 29.80 in 10.0 mi ESE 21.9 mph 27.6 mph N/A   Overcast
1:55 AM 17.1 °F 0.1 °F 9.0 °F 71% 29.76 in 10.0 mi ESE 20.7 mph - N/A   Overcast
2:55 AM 17.1 °F 1.0 °F 9.0 °F 71% 29.75 in 10.0 mi ESE 18.4 mph 25.3 mph N/A   Overcast
3:55 AM 16.0 °F -1.7 °F 9.0 °F 74% 29.73 in 8.0 mi ESE 21.9 mph 29.9 mph 0.00 in   Overcast
4:55 AM 16.0 °F -0.9 °F 10.9 °F 81% 29.73 in 6.0 mi ESE 19.6 mph - 0.00 in   Overcast
5:55 AM 16.0 °F -1.3 °F 10.9 °F 81% 29.73 in 5.0 mi ESE 20.7 mph 25.3 mph 0.00 in   Overcast
6:26 AM 15.8 °F -1.1 °F 10.4 °F 79% 29.63 in 2.5 mi ESE 19.6 mph - 0.00 in Snow Light Snow
6:55 AM 15.1 °F -0.1 °F 12.0 °F 88% 29.73 in 2.5 mi ESE 15.0 mph - 0.00 in Snow Light Snow
7:15 AM 15.8 °F -0.6 °F 12.2 °F 86% 29.64 in 3.0 mi East 18.4 mph - 0.00 in Snow Light Snow
7:25 AM 15.8 °F 0.9 °F 12.2 °F 86% 29.65 in 2.5 mi ESE 15.0 mph - 0.00 in Snow Light Snow
7:41 AM 15.8 °F 0.9 °F 12.2 °F 86% 29.66 in 3.0 mi ESE 15.0 mph 24.2 mph 0.00 in Snow Light Snow
7:55 AM 15.1 °F -0.6 °F 10.9 °F 84% 29.75 in 3.0 mi ESE 16.1 mph - 0.00 in Snow Light Snow
8:48 AM 15.8 °F -0.2 °F 12.2 °F 86% 29.67 in 3.0 mi East 17.3 mph 24.2 mph 0.00 in Rain Light Freezing Rain
8:55 AM 15.1 °F -0.6 °F 12.0 °F 88% 29.77 in 2.5 mi East 16.1 mph - 0.00 in Rain Light Freezing Rain
9:13 AM 15.8 °F 0.3 °F 12.2 °F 86% 29.68 in 2.5 mi East 16.1 mph - 0.00 in Snow Light Snow
9:55 AM 15.1 °F -0.6 °F 12.0 °F 88% 29.79 in 3.0 mi East 16.1 mph - 0.00 in Snow Light Snow
10:05 AM 15.8 °F 3.4 °F 12.2 °F 86% 29.70 in 2.0 mi East 10.4 mph - 0.00 in Snow Light Snow
10:24 AM 15.8 °F 2.1 °F 10.4 °F 79% 29.70 in 1.5 mi East 12.7 mph - 0.00 in Snow Light Snow
10:55 AM 15.1 °F -0.1 °F 10.9 °F 84% 29.81 in 1.5 mi East 15.0 mph - 0.00 in Snow Light Snow
11:15 AM 15.8 °F 1.4 °F 10.4 °F 79% 29.72 in 2.0 mi East 13.8 mph - 0.00 in Snow Light Snow
11:27 AM 15.8 °F 0.9 °F 10.4 °F 79% 29.73 in 1.5 mi East 15.0 mph - 0.00 in Snow Light Snow
11:55 AM 15.1 °F 1.1 °F 10.9 °F 84% 29.82 in 1.0 mi East 12.7 mph - 0.00 in Snow Light Snow
12:03 PM 15.8 °F 2.1 °F 10.4 °F 79% 29.73 in 1.0 mi East 12.7 mph - 0.00 in Snow Light Snow
12:37 PM 15.8 °F 3.4 °F 10.4 °F 79% 29.73 in 0.8 mi East 10.4 mph - 0.00 in Snow Light Snow
12:55 PM 15.1 °F 1.8 °F 10.0 °F 80% 29.82 in 0.5 mi East 11.5 mph - 0.00 in Snow Snow
1:55 PM 15.1 °F 2.5 °F 10.0 °F 80% 29.83 in 0.8 mi East 10.4 mph - 0.01 in Snow Light Snow
2:11 PM 15.8 °F 3.4 °F 10.4 °F 79% 29.74 in 1.0 mi ENE 10.4 mph - 0.00 in Snow Light Snow
2:55 PM 15.1 °F 1.8 °F 10.0 °F 80% 29.84 in 1.0 mi NE 11.5 mph - 0.00 in Snow Light Snow
3:07 PM 15.8 °F 4.2 °F 10.4 °F 79% 29.75 in 1.5 mi NE 9.2 mph - 0.00 in Snow Light Snow
3:55 PM 15.1 °F 4.2 °F 10.0 °F 80% 29.86 in 4.0 mi NE 8.1 mph - 0.00 in Snow Light Snow
4:40 PM 15.8 °F 7.2 °F 8.6 °F 73% 29.78 in 5.0 mi NNE 5.8 mph - 0.00 in Snow Light Snow
4:55 PM 15.1 °F 6.4 °F 9.0 °F 77% 29.88 in 1.5 mi NNE 5.8 mph - 0.00 in Snow Light Snow
5:29 PM 14.0 °F 3.9 °F 10.4 °F 86% 29.81 in 1.8 mi North 6.9 mph - 0.01 in Snow Light Snow
5:55 PM 14.0 °F 2.9 °F 10.0 °F 84% 29.91 in 2.5 mi North 8.1 mph - 0.01 in Snow Light Snow
6:07 PM 12.2 °F 2.9 °F 10.4 °F 92% 29.82 in 3.0 mi North 5.8 mph - 0.00 in Snow Light Snow
6:17 PM 12.2 °F 2.9 °F 10.4 °F 92% 29.83 in 2.5 mi North 5.8 mph - 0.00 in Snow Light Snow
6:24 PM 12.2 °F 2.9 °F 10.4 °F 92% 29.83 in 2.5 mi North 5.8 mph - 0.00 in Snow Light Snow
6:55 PM 12.9 °F 5.2 °F 10.0 °F 88% 29.95 in 1.8 mi North 4.6 mph - 0.00 in Snow Light Snow
7:02 PM 12.2 °F 2.9 °F 10.4 °F 92% 29.85 in 1.5 mi North 5.8 mph - 0.00 in Snow Light Snow
7:20 PM 12.2 °F 2.9 °F 8.6 °F 85% 29.86 in 2.5 mi NNW 5.8 mph - 0.00 in Snow Light Snow
7:23 PM 12.2 °F 1.7 °F 8.6 °F 85% 29.86 in 3.0 mi NNW 6.9 mph - 0.00 in Snow Light Snow
7:55 PM 10.9 °F 1.4 °F 8.1 °F 88% 29.97 in 3.0 mi NNW 5.8 mph - 0.00 in Snow Light Snow
8:14 PM 10.4 °F 0.8 °F 6.8 °F 85% 29.87 in 2.5 mi NW 5.8 mph - 0.00 in Snow Light Snow
8:19 PM 10.4 °F 0.8 °F 6.8 °F 85% 29.87 in 4.0 mi NW 5.8 mph - 0.00 in Snow Light Snow
8:55 PM 8.1 °F -4.3 °F 5.0 °F 87% 29.99 in 5.0 mi NNW 8.1 mph - 0.00 in   Overcast
9:21 PM 6.8 °F -6.9 °F 3.2 °F 85% 29.88 in 8.0 mi NW 9.2 mph - N/A   Overcast
9:55 PM 5.0 °F -10.0 °F 1.9 °F 87% 30.01 in 10.0 mi NW 10.4 mph - N/A   Overcast
10:55 PM 6.1 °F -10.2 °F 1.0 °F 80% 30.02 in 10.0 mi NW 12.7 mph - N/A   Overcast
11:55 PM 5.0 °F -12.3 °F -0.0 °F 80% 30.06 in 10.0 mi NW 13.8 mph - N/A   Overcast